Tracking 19730 objects as of 27-Jun-2019
HD Live streaming from Space Station
objects crossing your sky now

COSMOS 1900 DEB

Track COSMOS 1900 DEB now!
10-day predictions


NORAD ID: 43501
Int'l Code: 1987-101F
Perigee: 683.2 km
Apogee: 747.2 km
Inclination: 66.1 °
Period: 98.9 minutes
Semi major axis: 7086 km
RCS: Unknown
Launch date: December 12, 1987
Source: Commonwealth of Independent States (former USSR) (CIS)
Launch site: TYURATAM MISSILE AND SPACE COMPLEX (TTMTR)

Note: This is SATELLITE DEBRIS
aabbcc
Your satellite tracking list
Your tracking list is empty




NASA's NSSDC Master Catalog

Two Line Element Set (TLE):
1 43501U 87101F   19145.03332441 -.00000037  00000-0  15439-4 0  9997
2 43501  66.0854  19.6729 0045168 253.9920 174.5126 14.55413973388683
Source of the keplerian elements: AFSPC